STARLINK-1226 (45229 NORAD) Tracking and Keplerian Element Data

This shows tracking and keplerian element data for the satellite.

Feedback or suggestion? Click here.




ElementValue
Catalog45229
NameSTARLINK-1226
Epoch Orbit162
Epoch Day93.91667824
Epoch Year2020
RAAN44.4611
Inclination52.9997
Eccentricity0.0002087
Argument of Perigee338.0374
Mean Anonmoly88.4676
Mean Motion15.62760851
Decay Rate-1.39E-06
L11 45229U 20012BD 20093.91667824 -.00000139 00000-0 43285-5 0 9995
L22 45229 52.9997 44.4611 0002087 338.0374 88.4676 15.62760851 1629

Live tracking and technical data element details for STARLINK-1226 (NORAD 45229). STARLINK-1226 can be tracked NOW for your location showing map with azimuth and elevation plus other details from your city location.

Track the satellite on the map from your city or location and see movement details for azimuth, elevation, latitude, longitude, range, height, and movement on the map or in text.







IsCatalogInMostPopularTable: catalog: 45229, numindb: 7
Update: records affected: 1



GetName: 45229 STARLINK-1226

Hit Count: updated at: Tue, 07 Apr 2020 17:03:07 GMT